Regional Weather Roundup
Issued by NWS

Home | Current Version | Previous Version | Text Only | Print | Product List | Glossary On
Versions: 1 2 3 4 5 6 7 8 9 10 11 12 13 14 15 16 17 18 19 20 21 22 23 24 25 26 27 28 29 30 31 32 33 34 35 36 37 38 39 40 41 42 43 44 45 46 47 48 49 50
000
ASUS42 KKEY 130010
RWRKEY

FLORIDA REGIONAL WEATHER ROUNDUP FOR THE FLORIDA KEYS
NATIONAL WEATHER SERVICE KEY WEST FLORIDA
700 PM EST FRI FEB 12 2016

...SOUTH FLORIDA AND THE KEYS...

CITY           SKY/WX    TMP DP  RH WIND       PRES   REMARKS
FORT MYERS     CLEAR     63  43  48 W7        30.23S
SW REGIONAL AP PTCLDY    65  39  38 CALM      30.23S
NAPLES         CLEAR     63  50  62 NW6       30.23S
MIAMI          PTCLDY    68  54  60 SE5       30.21S
WEST KENDALL   CLEAR     67  52  58 E3        30.22R
HOMESTEAD      CLEAR     67  54  63 E6        30.21R
MARATHON       CLEAR     66  59  78 NE7       30.20S
BOCA CHICA NAS PTCLDY    66  60  81 N9        30.21S
KEY WEST INTL  CLEAR     66  61  84 N6        30.21S

...INTERNATIONAL WEATHER...

CITY           SKY/WX    TMP DP  RH WIND       PRES   REMARKS
NASSAU BAHAMAS PTCLDY    68  61  77 NE3       30.19F
CANCUN MEXICO  PTCLDY    72  59  64 N3        30.16R
COZUMEL MEXICO PTCLDY    68  59  73 NE8       30.15S

ADJACENT COASTAL WATERS...

STATION/POSITION TIME  SKY/WX   TEMP    WIND        PRES    WAVE
                                AIR SEA DIR/SP/G            HT/PER
                 (UTC)          (F)     (DEG/KT/KT) (MB)    (FT/S)
PULASKI SHOAL LI NOT AVBL
SAND KEY         2350            67      40/ 14/ 16 1022.9F
SOMBRERO KEY     NOT AVBL
LONG KEY         0000            67 65   30/  8/  8 1023.4R
MOLASSES REEF    0000            71 76   90/  6/  6 1022.5F
FOWEY ROCKS      NOT AVBL

$$



USA.gov is the U.S. government's official web portal to all federal, state and local government web resources and services.